Location: Tucson
(32.2217°N, 110.9265°W)
Time: 06:08:07
(UTC-07:00)

Vanguard 2 Rocket - All Passes

Search period start: 25 October 2021 00:00
Search period end: 04 November 2021 00:00
Orbit: 556 x 3323 km, 32.9° (Epoch: 24 October)

Date Brightness Start Highest point End Pass type
(mag) Time Alt. Az. Time Alt. Az. Time Alt. Az.
25 Oct - 00:41:42 10° SSE 00:48:04 12° SE 00:53:57 10° ESE visible
25 Oct - 02:48:51 10° SSW 03:05:06 36° SSE 03:16:22 10° E visible
25 Oct - 05:05:12 10° WSW 05:21:23 68° SSE 05:30:31 10° E visible
25 Oct - 07:24:26 10° W 07:36:29 86° N 07:43:00 10° E daylight
25 Oct - 09:42:32 10° W 09:50:17 72° SSW 09:55:00 10° ESE daylight
25 Oct - 11:59:29 10° WSW 12:02:24 16° SW 12:04:56 10° S daylight
26 Oct - 01:48:18 10° SSW 02:03:33 29° SE 02:15:21 10° E visible
26 Oct - 04:02:48 10° SW 04:20:19 58° SSE 04:30:56 10° E visible
26 Oct - 06:21:41 10° WSW 06:36:05 88° S 06:43:52 10° E daylight
26 Oct - 08:40:50 10° W 08:50:36 87° S 08:56:06 10° ESE daylight
26 Oct - 10:58:00 10° W 11:03:20 30° SSW 11:07:10 10° SSE daylight
27 Oct - 00:48:54 10° S 01:01:54 21° SE 01:13:05 10° E visible
27 Oct - 03:00:52 10° SW 03:18:55 49° SSE 03:30:58 10° E visible
27 Oct - 05:18:45 10° WSW 05:35:20 81° SSE 05:44:34 10° E visible
27 Oct - 07:38:31 10° W 07:50:33 86° N 07:57:05 10° E daylight
27 Oct - 09:56:36 10° W 10:04:07 51° SSW 10:08:46 10° SE daylight
27 Oct - 23:51:45 10° SSE 00:00:14 14° SE 00:08:16 10° ESE visible
28 Oct - 01:59:36 10° SSW 02:17:16 40° SSE 02:30:26 10° E visible
28 Oct - 04:15:57 10° WSW 04:34:12 72° SSE 04:45:03 10° E visible
28 Oct - 06:35:42 10° W 06:50:09 87° N 06:57:56 10° E daylight
28 Oct - 08:54:51 10° W 09:04:34 72° SSW 09:10:04 10° ESE daylight
28 Oct - 11:12:50 10° W 11:16:45 18° SW 11:19:51 10° S daylight
29 Oct - 00:59:13 10° SSW 01:15:31 32° SE 01:29:06 10° E visible
29 Oct - 03:13:33 10° SW 03:32:42 62° SSE 03:45:13 10° E visible
29 Oct - 05:32:37 10° WSW 05:49:21 89° SSE 05:58:37 10° E visible
29 Oct - 07:52:35 10° W 08:04:37 86° S 08:11:08 10° ESE daylight
29 Oct - 10:10:50 10° W 10:17:40 33° SW 10:22:10 10° SSE daylight
30 Oct - 00:00:00 10° S 00:13:49 23° SE 00:26:30 10° E visible
30 Oct - 02:11:46 10° SW 02:30:56 53° SSE 02:44:55 10° E visible
30 Oct - 04:29:32 10° WSW 04:48:07 83° SSE 04:59:06 10° E visible
30 Oct - 06:49:47 10° W 07:04:14 87° N 07:12:01 10° E daylight
30 Oct - 09:08:53 10° W 09:18:20 54° SSW 09:23:48 10° SE daylight
30 Oct - 23:02:53 10° SSE 23:12:13 15° SE 23:21:27 10° ESE night (unlit)
31 Oct - 01:10:45 10° SSW 01:29:02 43° SSE 01:44:02 10° E visible
31 Oct - 03:26:45 10° WSW 03:46:31 75° SSE 03:59:16 10° ENE visible
31 Oct - 05:46:38 10° W 06:03:24 87° N 06:12:41 10° E visible
31 Oct - 08:06:35 10° WNW 08:18:32 73° SSW 08:25:03 10° ESE daylight
31 Oct - 10:25:33 10° W 10:30:58 21° SW 10:34:55 10° S daylight
01 Nov - 00:10:40 10° SSW 00:27:10 34° SE 00:42:18 10° E visible
01 Nov - 02:24:34 10° SW 02:44:36 65° SSE 02:59:05 10° ENE visible
01 Nov - 04:43:24 10° W 05:02:06 90° NNW 05:13:08 10° E visible
01 Nov - 07:03:50 10° W 07:18:16 86° SSW 07:26:03 10° ESE daylight
01 Nov - 09:23:05 10° W 09:31:48 37° SW 09:37:10 10° SSE daylight
01 Nov - 23:11:45 10° S 23:25:31 24° SE 23:39:16 10° E visible
02 Nov - 01:23:05 10° SW 01:42:31 55° SSE 01:58:25 10° ENE visible
02 Nov - 03:40:23 10° WSW 04:00:24 85° SSE 04:13:18 10° E visible
02 Nov - 06:00:43 10° W 06:17:28 88° N 06:26:45 10° E visible
02 Nov - 08:20:35 10° WNW 08:32:14 56° SSW 08:38:46 10° SE daylight
02 Nov - 10:41:53 10° WSW 10:44:02 11° SW 10:45:58 10° SSW daylight
02 Nov - 22:14:53 10° SSE 22:24:07 16° SE 22:33:46 10° ESE night (unlit)
03 Nov - 00:22:25 10° SSW 00:40:28 45° SE 00:57:07 10° E visible
03 Nov - 02:37:51 10° WSW 02:58:20 77° SSE 03:13:08 10° ENE visible
03 Nov - 04:57:26 10° W 05:16:10 87° N 05:27:12 10° E visible
03 Nov - 07:17:49 10° WNW 07:32:08 74° SSW 07:39:57 10° ESE daylight
03 Nov - 09:37:41 10° W 09:45:00 24° SW 09:49:58 10° S daylight
03 Nov - 23:22:42 10° SSW 23:38:39 35° SE 23:54:55 10° E visible
